Chambery, France

6:35 AM CEST on May 27, 2018 (GMT +0200)
Aix-les-Bains

Weather History for LFLB - March, 2013

Change the Weather History Date:

Thursday, March 7, 2013

  Actual Average Record
Temperature  
Mean Temperature 48 °F -  
Max Temperature 57 °F 55 °F 59 °F (1998)
Min Temperature 39 °F 36 °F 26 °F (2005)
Degree Days  
Heating Degree Days 17    
Moisture  
Dew Point 39 °F    
Average Humidity 81    
Maximum Humidity 93    
Minimum Humidity 59    
Precipitation  
Precipitation 0.00 in - - ()
Sea Level Pressure  
Sea Level Pressure 29.56 in    
Wind  
Wind Speed 2 mph ()    
Max Wind Speed 7 mph    
Max Gust Speed -    
Visibility 5.9 miles    
Events Rain    
Averages and records for this station are not official NWS values.
T = Trace of Precipitation, MM = Missing Value Source: Averaged Metar Reports

Daily Weather History Graph

Daily Weather History Graph

Search for Another Location

Airport or City:

Astronomy

Mar. 07, 2013 Rise Set
Actual Time 7:04 AM CET 6:31 PM CET
Civil Twilight 6:34 AM CET 7:01 PM CET
Nautical Twilight 6:00 AM CET 7:35 PM CET
Astronomical Twilight 5:25 AM CET 8:10 PM CET
Moon 4:02 AM CET (3/7) 1:50 PM CET (3/7)
Length of Visible Light 12h 26m
Length of Day
11h 27m
Waning Crescent, 22% of the Moon is Illuminated
Mar 7
Waning Crescent
Mar 11
New
Mar 19
First Quarter
Mar 27
Full
Apr 3
Last Quarter

Hourly Weather History & Observations

Time (CET) Temp. Windchill Dew Point Humidity Pressure Visibility Wind Dir Wind Speed Gust Speed Precip Events Conditions
12:00 AM 41.0 °F - 37.4 °F 87% 29.53 in 5.6 mi Variable 2.3 mph - N/A   Unknown
12:30 AM 41.0 °F - 37.4 °F 87% 29.53 in 6.2 mi Calm Calm - N/A   Unknown
1:00 AM 41.0 °F - 37.4 °F 87% 29.53 in 6.2 mi Calm Calm - N/A   Unknown
1:30 AM 39.2 °F - 35.6 °F 87% 29.53 in 6.2 mi East 2.3 mph - N/A   Unknown
2:00 AM 39.2 °F 37.0 °F 35.6 °F 87% 29.53 in 6.2 mi SE 3.5 mph - N/A   Unknown
2:30 AM 39.2 °F 37.0 °F 35.6 °F 87% 29.53 in 6.2 mi Variable 3.5 mph - N/A   Unknown
3:00 AM 39.2 °F - 35.6 °F 87% 29.53 in 6.2 mi Variable 2.3 mph - N/A   Unknown
3:30 AM 41.0 °F - 37.4 °F 87% 29.53 in 6.2 mi Calm Calm - N/A   Unknown
4:00 AM 39.2 °F - 35.6 °F 87% 29.53 in 5.6 mi SE 2.3 mph - N/A   Overcast
4:30 AM 39.2 °F - 37.4 °F 93% 29.56 in 6.2 mi Calm Calm - N/A   Overcast
5:00 AM 41.0 °F - 37.4 °F 87% 29.56 in 5.6 mi Calm Calm - N/A Rain Light Rain
5:30 AM 41.0 °F - 37.4 °F 87% 29.56 in 6.2 mi Calm Calm - N/A   Overcast
6:00 AM 41.0 °F 39.0 °F 37.4 °F 87% 29.56 in 5.0 mi South 3.5 mph - N/A Rain Light Rain
6:30 AM 41.0 °F - 37.4 °F 87% 29.56 in 5.0 mi Calm Calm - N/A   Overcast
7:00 AM 41.0 °F - 37.4 °F 87% 29.56 in 5.6 mi Variable 2.3 mph - N/A   Overcast
7:30 AM 41.0 °F - 39.2 °F 93% 29.59 in 5.6 mi Calm Calm - N/A   Overcast
8:00 AM 41.0 °F - 39.2 °F 93% 29.59 in 6.2 mi Calm Calm - N/A   Overcast
8:30 AM 42.8 °F - 39.2 °F 87% 29.59 in 6.2 mi Calm Calm - N/A Rain Light Rain
9:00 AM 42.8 °F - 39.2 °F 87% 29.62 in 6.2 mi Calm Calm - N/A Rain Light Rain
9:30 AM 44.6 °F - 39.2 °F 81% 29.62 in 5.0 mi Calm Calm - N/A Rain Light Rain
10:00 AM 46.4 °F - 39.2 °F 76% 29.62 in 4.3 mi Calm Calm - N/A Rain Light Rain
10:37 AM 46.4 °F - 39.2 °F 76% 29.62 in 4.3 mi North 2.3 mph - N/A Rain Light Rain
11:00 AM 46.4 °F - 41.0 °F 81% 29.62 in 5.0 mi Variable 2.3 mph - N/A   Mostly Cloudy
11:30 AM 44.6 °F 42.2 °F 41.0 °F 87% 29.62 in 5.0 mi NNW 4.6 mph - N/A   Mostly Cloudy
12:00 PM 48.2 °F - 41.0 °F 76% 29.62 in 6.2 mi Variable 1.2 mph - N/A   Mostly Cloudy
12:30 PM 46.4 °F 44.3 °F 41.0 °F 81% 29.62 in 6.2 mi North 4.6 mph - N/A   Mostly Cloudy
1:00 PM 48.2 °F - 41.0 °F 76% 29.62 in 6.2 mi North 6.9 mph - N/A   Mostly Cloudy
1:38 PM 50.0 °F - 41.0 °F 71% 29.59 in 6.2 mi North 5.8 mph - N/A   Mostly Cloudy
2:00 PM 50.0 °F - 41.0 °F 71% 29.59 in 6.2 mi North 5.8 mph - N/A   Mostly Cloudy
2:30 PM 51.8 °F - 41.0 °F 67% 29.59 in 6.2 mi North 4.6 mph - N/A   Mostly Cloudy
3:00 PM 55.4 °F - 42.8 °F 63% 29.56 in 6.2 mi NNW 4.6 mph - N/A   Mostly Cloudy
3:30 PM 55.4 °F - 42.8 °F 63% 29.56 in 6.2 mi North 5.8 mph - N/A   Mostly Cloudy
4:00 PM 57.2 °F - 42.8 °F 59% 29.53 in 6.2 mi NNW 4.6 mph - N/A   Scattered Clouds
5:00 PM 57.2 °F - 42.8 °F 59% 29.53 in 6.2 mi NNW 3.5 mph - N/A   Partly Cloudy
5:30 PM 50.0 °F - 41.0 °F 71% 29.53 in 6.2 mi North 4.6 mph - N/A   Partly Cloudy
6:00 PM 48.2 °F - 41.0 °F 76% 29.56 in 6.2 mi Variable 2.3 mph - N/A   Scattered Clouds
6:30 PM 50.0 °F - 41.0 °F 71% 29.56 in 6.2 mi ESE 1.2 mph - N/A   Partly Cloudy
7:00 PM 48.2 °F - 41.0 °F 76% 29.56 in 6.2 mi Variable 2.3 mph - N/A   Unknown
7:30 PM 48.2 °F - 41.0 °F 76% 29.56 in 6.2 mi Variable 2.3 mph - N/A   Unknown
8:00 PM 46.4 °F 45.2 °F 41.0 °F 81% 29.56 in 6.2 mi Variable 3.5 mph - N/A   Unknown
8:30 PM 46.4 °F - 41.0 °F 81% 29.56 in 6.2 mi Variable 2.3 mph - N/A   Unknown
9:00 PM 44.6 °F - 39.2 °F 81% 29.53 in 6.2 mi Calm Calm - N/A   Unknown
9:30 PM 42.8 °F - 39.2 °F 87% 29.53 in 6.2 mi Calm Calm - N/A   Unknown
10:00 PM 42.8 °F 40.1 °F 41.0 °F 93% 29.53 in 6.2 mi South 4.6 mph - N/A   Unknown
10:30 PM 42.8 °F 39.3 °F 39.2 °F 87% 29.53 in 6.2 mi SE 5.8 mph - N/A   Unknown
11:00 PM 41.0 °F 39.0 °F 39.2 °F 93% 29.53 in 6.2 mi Variable 3.5 mph - N/A   Unknown
11:30 PM 41.0 °F - 39.2 °F 93% 29.53 in 6.2 mi Calm Calm - N/A   Unknown